Regional Weather Roundup
Issued by NWS Sterling, VA

Home | Current Version | Previous Version | Graphics & Text | Print | Product List | Glossary On
Versions: 1 2 3 4 5 6 7 8 9 10 11 12 13 14 15 16 17 18 19 20 21 22 23 24 25 26 27
000
ASUS41 KLWX 271810
RWRLWX

REGIONAL WEATHER ROUNDUP
NATIONAL WEATHER SERVICE BALTIMORE MD/WASHINGTON DC
200 PM EDT WED JUL 27 2016

Note: "FAIR" indicates few or no clouds below 12,000 feet
with no significant weather and/or obstructions to visibility.
 TC=TEMPERATURE CELSIUS

 * =Non NWS site. Station does not report precipitation (e.g. rain,
    snow, etc.), thunder, or fog.

DCZ001-MDZ009-015-VAZ040>042-051-053>054-271900-
WASHINGTON METRO

CITY           SKY/WX    TMP DP  RH WIND       PRES   REMARKS
WASHINGTON NAT FAIR      95  63  34 N10       29.94F HX  96
DULLES         PTSUNNY   92  62  36 VRB7      29.96F HX  92
ANDREWS AFB    SUNNY     91  66  43 VRB3      29.94F HX  93
FT BELVOIR     FAIR      94  62  34 VRB3      29.93F HX  95
QUANTICO       FAIR      92  69  47 SE6       29.94F HX  97
LEESBURG*      FAIR      90  68  48 SW5       29.97F HX  93
MANASSAS*      SUNNY     91  63  38 CALM      29.95F HX  92
GAITHERSBURG*  MOSUNNY   90  66  45 CALM      30.00F HX  92

$$

MDZ006>007-011-014-271900-
BALTIMORE METRO

CITY           SKY/WX    TMP DP  RH WIND       PRES   REMARKS
BWI AIRPORT    PTSUNNY   92  65  40 CALM      29.93F HX  94
MD SCIENCE CTR   N/A     91  66  43 MISG      29.93F HX  93
ANNAPOLIS      CLOUDY    87  72  60 NW7       29.93F HX  93

$$

MDZ012-015-019>023-271900-
MARYLAND EASTERN SHORE

CITY           SKY/WX    TMP DP  RH WIND       PRES   REMARKS
OCEAN CITY     CLOUDY    75  72  90 S6        29.94S
SALISBURY      PTSUNNY   89  76  65 W9        29.92S HX 100
EASTON*        MOSUNNY   91  75  59 NW7       29.97F HX 102

$$

MDZ017>025-271900-
SOUTHERN MARYLAND

CITY           SKY/WX    TMP DP  RH WIND       PRES   REMARKS
PATUXENT RIVER MOSUNNY   94  68  42 NW6       29.93F HX  98
ST INIGOES     SUNNY     92  74  55 W5        29.92F HX 101
LEONARDTOWN*   NOT AVBL

$$

MDZ003>005-271900-
NORTH CENTRAL MARYLAND

CITY           SKY/WX    TMP DP  RH WIND       PRES   REMARKS
FREDERICK*     SUNNY     91  64  40 W8        29.98F HX  93
HAGERSTOWN APT SUNNY     92  59  33 VRB3      29.97F HX  91

$$

MDZ501>502-271900-
WESTERN MARYLAND

CITY           SKY/WX    TMP DP  RH WIND       PRES   REMARKS
OAKLAND*       NOT AVBL
CUMBERLAND*    SUNNY     90  64  43 CALM      30.01F HX  91

$$

VAZ025>031-271900-
SHENANDOAH VALLEY

CITY           SKY/WX    TMP DP  RH WIND       PRES   REMARKS
WINCHESTER*    FAIR      88  68  51 NW6       29.98F HX  91
FRONT ROYAL*   FAIR      88  68  51 CALM      29.96F HX  91
LURAY*         FAIR      90  72  55 CALM      29.98F HX  96
NEW MARKET*    FAIR     N/A N/A N/A CALM      29.97F
STAUNTON*      TSTM      74  72  95 SW6       30.05R
WAYNESBORO*    FAIR      90  67  46 NW3       30.01F HX  93

$$

WVZ021-048>050-054>055-271900-
EASTERN WEST VIRGINIA PANHANDLE

CITY           SKY/WX    TMP DP  RH WIND       PRES   REMARKS
MARTINSBURG    FAIR      92  61  35 VRB3      29.96F HX  92
PETERSBURG*    FAIR      92  70  47 W6        29.97F HX  97

$$

VAZ036>039-050-271900-
CENTRAL FOOTHILLS

CITY           SKY/WX    TMP DP  RH WIND       PRES   REMARKS
CHARLOTTESVILL PTSUNNY   94  70  45 SE7       29.96F HX 100
CULPEPER*      FAIR      91  71  51 CALM      29.96F HX  96
ORANGE*          N/A     90  68  48 CALM      29.98F HX  93
GORDONSVILLE*  FAIR      89  70  52 CALM      29.96F HX  94
WARRENTON*     FAIR      93  58  30 CALM      29.95F HX  92

$$

VAZ055>057-271900-
NORTH AND CENTRAL PIEDMONT

CITY           SKY/WX    TMP DP  RH WIND       PRES   REMARKS
FREDERICKSBRG*   N/A     92  69  45 CALM      29.93F HX  97
STAFFORD*      FAIR      94  59  31 N5        29.98F HX  93

$$

NCZ024-NYZ072-PAZ021-071-VAZ022-071-271900-
OTHER REGIONAL OBSERVATIONS

CITY           SKY/WX    TMP DP  RH WIND       PRES   REMARKS
NEW YORK CITY  MOSUNNY   90  63  40 CALM      29.95F HX  91
PHILADELPHIA   MOSUNNY   92  66  42 E8        29.92F HX  94
PITTSBURGH     PTSUNNY   86  55  34 VRB5      30.02F
ROANOKE        PTSUNNY   89  72  56 CALM      30.01F THUNDER HX  96
RICHMOND       FAIR      90  75  61 VRB5      29.94F HX 100
RALEIGH        MOSUNNY   95  74  50 CALM      29.97F HX 105

$$

ANZ530>537-271900-
MARINE OBSERVATIONS

STATION/POSITION TIME  TEMP    WIND        PRES
                       AIR SEA DIR/SP/G
                 (UTC) (F)     (DEG/KT/KT) (MB)
THOMAS PT LIGHT  1800   85 85   40/  4/  4 1015.0F
BALT KEY BRIDGE  1742   87     320/  3/  4 1013.7F
COVE POINT       1748   85      30/  5/  6 1014.1F
LEWISETTA        1748   88 87   10/  7/  9 1013.2F
SOLOMONS ISLAND  1742   91 85  250/  4/  7   N/A
PINEY POINT      1748          320/  7/  7   N/A

$$





USA.gov is the U.S. government's official web portal to all federal, state and local government web resources and services.